Retour au catalogue

DELTA 1 R/B

ActifPO
NORAD 20323·ROCKET BODY·🇺🇸 United States

Lancé Nov 18, 1989 depuis Vandenberg Space Force Base

Loading…

Prochains Passages (prochaines 24 heures)

TLE

FraisSource: Space-Track

Époque: Sep 13, 2026, 23:38 UTC

1 20323U 89089B   26256.98529183  .00000205  00000-0  59585-4 0  9993
2 20323  97.0661  74.3520 0067597 246.8969 112.5095 14.50774214923035

Suivez DELTA 1 R/B en temps réel avec AllMySat

Download on the App Store